Printer-friendly version

IAU Minor Planet Center

Minor Planet Center

MPEC 2004-M67 : 2004 MP7

The following Minor Planet Electronic Circular may be linked-to from your own Web pages, but must not otherwise be redistributed electronically.


Read MPEC 2004-M66 Read MPEC 2004-M68


M.P.E.C. 2004-M67                                Issued 2004 June 29, 22:39 UT

     The Minor Planet Electronic Circulars contain information on unusual
         minor planets and routine data on comets.  They are published
   on behalf of Commission 20 of the International Astronomical Union by the
          Minor Planet Center, Smithsonian Astrophysical Observatory,
                          Cambridge, MA 02138, U.S.A.

         Supported in part by the Steven and Michele Kirsch Foundation
             Prepared using the Tamkin Foundation Computer Network

                              MPC@CFA.HARVARD.EDU
          URL http://cfa-www.harvard.edu/iau/mpc.html  ISSN 1523-6714

                                   2004 MP7

Observations:
     K04M07P* C2004 06 26.28815 18 53 24.37 +02 21 14.4                 EM067683
     K04M07P  C2004 06 26.29039 18 53 24.56 +02 19 26.9                 EM067683
     K04M07P  C2004 06 26.30158 18 53 25.88 +02 09 51.9                 EM067683
     K04M07P  C2004 06 26.30381 18 53 25.50 +02 08 01.6                 EM067683
     K04M07P  C2004 06 26.31495 18 53 26.65 +01 58 32.5                 EM067683
     K04M07P  C2004 06 26.31719 18 53 26.84 +01 56 45.0                 EM067683
     K04M07P  C2004 06 29.48067 18 59 09.66 -24 17 59.0          16.8 V EM067428
     K04M07P  C2004 06 29.48119 18 59 09.71 -24 18 08.5          16.5 V EM067428
     K04M07P  C2004 06 29.48168 18 59 09.67 -24 18 16.7          16.4 V EM067428
     K04M07P  C2004 06 29.56690 18 59 11.02 -24 41 30.1          16.2 V EM067428
     K04M07P  C2004 06 29.56885 18 59 11.03 -24 42 01.5          16.3 V EM067428
     K04M07P  C2004 06 29.56936 18 59 11.04 -24 42 09.9          16.1 V EM067428
     K04M07P  C2004 06 29.62515 18 59 11.60 -24 56 54.3          16.2 V EM067428
     K04M07P  C2004 06 29.62566 18 59 11.60 -24 57 02.0          16.2 V EM067428
     K04M07P  C2004 06 29.62616 18 59 11.64 -24 57 09.7          16.1 V EM067428
     K04M07P  C2004 06 29.90139 18 59 34.80 -26 08 11.3          16.3 R EM067620
     K04M07P  C2004 06 29.90365 18 59 34.83 -26 08 43.9          16.2 R EM067620
     K04M07P  C2004 06 29.90589 18 59 34.95 -26 09 16.9          16.3 R EM067620

Observer details:
428 Reedy Creek.  Observer J. Broughton.  0.51-m f/3.6 reflector + CCD.
620 Observatorio Astronomico de Mallorca.  Observers S. Sanchez, R. Stoss,
    J. Nomen.  0.30-m f/9 Schmidt-Cassegrain + CCD.
683 Goodricke-Pigott Observatory, Tucson.  Observer R. Tucker.  3 x (0.35-m
    f/5 reflector + CCD).

Orbital elements:
2004 MP7                                                             PHA 0.044
Epoch 2004 July 14.0 TT = JDT 2453200.5                 MPC
M  13.17876              (2000.0)            P               Q
n   0.21208761     Peri.  109.47606     -0.84479476     +0.44684651
a   2.7847904      Node    98.02544     -0.52969111     -0.77631030
e   0.7208660      Incl.   17.29402     +0.07582313     -0.44460152
P   4.65           H   21.7           G   0.15           U   9
Residuals in seconds of arc
040626 683 (0.5+  4.7-)   040629 428  0.3-  0.8+    040629 428  0.4-  0.3-
040626 683  0.3+  2.4+    040629 428  0.2+  0.1-    040629 428  0.5-  0.0
040626 683 (4.8+  1.7-)   040629 428  0.5-  0.1-    040629 428  0.0   0.1+
040626 683 (4.0-  1.5+)   040629 428  0.3-  0.1-    040629 620  0.2-  0.2+
040626 683  1.7-  1.9-    040629 428  0.4-  0.1-    040629 620  0.5-  0.6+
040626 683 (1.8-  4.1+)   040629 428  0.3-  0.4-    040629 620  0.4+  0.3+

Ephemeris:
2004 MP7                 a,e,i = 2.78, 0.72, 17                  q = 0.7773
Date    TT    R. A. (2000) Decl.     Delta      r     Elong.  Phase     V
2004 06 24    18 41.52   +46 16.1    0.030    1.027   110.0    68.4    16.6
2004 06 25    18 48.37   +24 57.4    0.031    1.037   131.0    47.7    16.0
2004 06 26    18 52.45   +06 42.5    0.035    1.047   148.9    30.1    15.8
2004 06 27    18 55.16   -06 30.0    0.042    1.057   161.6    17.6    15.9
2004 06 28    18 57.08   -15 35.5    0.051    1.067   169.8     9.7    16.0
2004 06 29    18 58.51   -21 55.9    0.061    1.077   173.9     5.7    16.2
2004 06 30    18 59.60   -26 29.7    0.071    1.087   173.9     5.7    16.6
2004 07 01    19 00.46   -29 53.5    0.081    1.097   172.0     7.5    17.0
2004 07 02    19 01.15   -32 29.7    0.092    1.107   169.9     9.3    17.4
2004 07 03    19 01.71   -34 32.6    0.103    1.118   168.1    10.8    17.7
2004 07 04    19 02.18   -36 11.2    0.114    1.128   166.6    12.1    18.0
2004 07 05    19 02.56   -37 31.7    0.125    1.138   165.2    13.2    18.2
2004 07 06    19 02.89   -38 38.4    0.137    1.149   164.0    14.1    18.5
2004 07 07    19 03.18   -39 34.2    0.148    1.159   163.0    14.9    18.7
2004 07 08    19 03.42   -40 21.4    0.160    1.170   162.1    15.5    18.9
2004 07 09    19 03.64   -41 01.6    0.171    1.180   161.2    16.1    19.1
2004 07 10    19 03.85   -41 36.1    0.183    1.191   160.4    16.6    19.3
2004 07 11    19 04.03   -42 05.8    0.195    1.201   159.6    17.1    19.5
2004 07 12    19 04.21   -42 31.4    0.207    1.212   158.9    17.6    19.6
2004 07 13    19 04.38   -42 53.6    0.219    1.223   158.2    18.0    19.8
2004 07 14    19 04.56   -43 12.8    0.231    1.233   157.6    18.3    19.9
2004 07 15    19 04.73   -43 29.4    0.243    1.244   156.9    18.7    20.1
2004 07 16    19 04.92   -43 43.8    0.256    1.255   156.3    19.0    20.2
2004 07 17    19 05.11   -43 56.3    0.268    1.265   155.7    19.3    20.3
2004 07 18    19 05.31   -44 07.0    0.280    1.276   155.1    19.6    20.5
2004 07 19    19 05.52   -44 16.1    0.293    1.287   154.5    19.9    20.6
2004 07 20    19 05.75   -44 23.9    0.305    1.297   153.9    20.2    20.7
2004 07 21    19 05.99   -44 30.4    0.318    1.308   153.2    20.5    20.8
2004 07 22    19 06.26   -44 35.8    0.331    1.319   152.6    20.7    20.9
2004 07 23    19 06.54   -44 40.2    0.344    1.330   152.0    21.0    21.0
2004 07 24    19 06.83   -44 43.6    0.357    1.340   151.4    21.2    21.1

Timothy B. Spahr             (C) Copyright 2004 MPC           M.P.E.C. 2004-M67

Read MPEC 2004-M66 Read MPEC 2004-M68


Our Web policy. Index to the CBAT/MPC/ICQ pages.


Valid HTML 4.01!